Track STARLINK-1809 now! 10-day predictions STARLINK-1809 is classified as:
1 46708U 20073AQ 21024.91667824 .00016296 00000-0 21309-3 0 9991 2 46708 53.0561 347.0973 0007657 297.3507 185.3444 15.58793051 1776